TimePST,TemperatureF,Dew PointF,Humidity,Sea Level PressureIn,VisibilityMPH,Wind Direction,Wind SpeedMPH,Gust SpeedMPH,PrecipitationIn,Events,Conditions,WindDirDegrees,DateUTC
12:53 AM,42.1,23.0,47,29.78,10.0,North,6.9,-,N/A,,Clear,360,2013-02-09 08:53:00
1:53 AM,42.1,26.1,53,29.77,10.0,NNW,12.7,-,N/A,,Mostly Cloudy,340,2013-02-09 09:53:00
2:53 AM,42.1,28.0,58,29.77,10.0,North,18.4,21.9,N/A,,Overcast,350,2013-02-09 10:53:00
3:53 AM,42.1,28.0,58,29.78,10.0,North,9.2,-,0.00,,Overcast,350,2013-02-09 11:53:00
4:53 AM,42.1,28.0,58,29.80,10.0,NW,5.8,-,N/A,,Overcast,320,2013-02-09 12:53:00
5:53 AM,42.1,25.0,51,29.81,10.0,NNW,10.4,-,N/A,,Mostly Cloudy,330,2013-02-09 13:53:00
6:53 AM,42.1,24.1,49,29.84,10.0,NNE,9.2,-,N/A,,Partly Cloudy,20,2013-02-09 14:53:00
7:53 AM,43.0,24.1,47,29.86,10.0,North,9.2,19.6,N/A,,Overcast,350,2013-02-09 15:53:00
8:53 AM,45.0,21.9,40,29.88,10.0,North,13.8,21.9,N/A,,Overcast,350,2013-02-09 16:53:00
9:53 AM,48.0,19.9,33,29.88,10.0,NNW,24.2,31.1,N/A,,Partly Cloudy,340,2013-02-09 17:53:00
10:53 AM,48.9,19.0,31,29.90,10.0,North,21.9,29.9,N/A,,Clear,350,2013-02-09 18:53:00
11:53 AM,50.0,18.0,28,29.88,10.0,North,24.2,33.4,N/A,,Partly Cloudy,360,2013-02-09 19:53:00
12:53 PM,52.0,18.0,26,29.88,10.0,NNW,20.7,33.4,N/A,,Clear,340,2013-02-09 20:53:00
1:53 PM,52.0,18.0,26,29.89,10.0,NNW,17.3,27.6,N/A,,Clear,340,2013-02-09 21:53:00
2:53 PM,53.1,17.1,24,29.90,10.0,NNW,16.1,28.8,N/A,,Clear,340,2013-02-09 22:53:00
3:53 PM,52.0,17.1,25,29.91,10.0,North,15.0,24.2,N/A,,Clear,360,2013-02-09 23:53:00
4:53 PM,52.0,17.1,25,29.93,10.0,NNW,8.1,-,N/A,,Clear,340,2013-02-10 00:53:00
5:53 PM,50.0,18.0,28,29.93,10.0,NW,8.1,-,N/A,,Clear,310,2013-02-10 01:53:00
6:53 PM,48.9,18.0,29,29.94,10.0,WNW,5.8,-,N/A,,Clear,290,2013-02-10 02:53:00
7:53 PM,48.9,18.0,29,29.96,10.0,West,5.8,-,N/A,,Clear,270,2013-02-10 03:53:00
8:53 PM,44.1,19.0,37,29.99,10.0,Calm,Calm,-,N/A,,Clear,0,2013-02-10 04:53:00
9:53 PM,48.0,16.0,28,29.98,10.0,NW,16.1,-,N/A,,Clear,320,2013-02-10 05:53:00
10:53 PM,45.0,17.1,33,30.01,10.0,North,6.9,-,N/A,,Clear,360,2013-02-10 06:53:00
11:53 PM,45.0,16.0,31,30.01,10.0,NNW,16.1,-,N/A,,Clear,330,2013-02-10 07:53:00